Location: Unspecified
(43.8044°N, 11.0278°E)
Time: 10:48:27
(UTC+02:00)

Okean 3 - Visible Passes

Search period start: 24 June 2017 00:00
Search period end: 04 July 2017 00:00
Orbit: 578 x 602 km, 82.5° (Epoch: 23 June)

Date Brightness Start Highest point End Pass type
(mag) Time Alt. Az. Time Alt. Az. Time Alt. Az.
24 Jun 3.5 03:14:53 10° N 03:19:09 78° E 03:21:35 24° SSE visible
25 Jun 6.2 01:48:22 10° NE 01:49:36 11° ENE 01:50:49 10° E visible
25 Jun 3.4 03:23:09 10° NNW 03:27:23 70° W 03:29:24 29° S visible
26 Jun 5.9 01:55:24 10° NNE 01:58:03 16° ENE 02:00:41 10° ESE visible
26 Jun 3.9 03:31:32 10° NNW 03:35:35 45° W 03:37:15 29° SW visible
27 Jun 5.4 02:03:05 10° NNE 02:06:28 23° ENE 02:08:36 16° ESE visible
27 Jun 4.4 03:40:02 10° NNW 03:43:45 30° W 03:45:08 24° SW visible
28 Jun 4.8 02:11:00 10° N 02:14:51 33° ENE 02:16:30 24° ESE visible
28 Jun 4.9 03:48:43 10° NW 03:51:53 21° W 03:53:02 19° WSW visible
29 Jun 4.1 02:19:03 10° N 02:23:10 49° ENE 02:24:26 36° SE visible
29 Jun 5.4 03:57:43 10° NW 03:59:57 14° W 04:00:57 13° W visible
30 Jun 3.5 02:27:12 10° N 02:31:28 75° E 02:32:22 52° SSE visible
01 Jul 6.1 01:01:01 10° NE 01:01:53 11° ENE 01:02:45 10° ENE visible
01 Jul 3.4 02:35:29 10° NNW 02:39:42 72° W 02:40:20 59° SSW visible
02 Jul 5.7 01:07:49 10° NNE 01:10:21 15° ENE 01:11:47 13° E visible
02 Jul 3.8 02:43:50 10° NNW 02:47:54 47° W 02:48:19 45° WSW visible
03 Jul 5.3 01:15:27 10° NNE 01:18:46 22° ENE 01:19:47 20° E visible
03 Jul 4.4 02:52:20 10° NNW 02:56:04 31° W 02:56:19 31° W visible
